TimePDT,TemperatureF,Dew PointF,Humidity,Sea Level PressureIn,VisibilityMPH,Wind Direction,Wind SpeedMPH,Gust SpeedMPH,PrecipitationIn,Events,Conditions,WindDirDegrees,DateUTC
12:53 AM,42.1,39.9,92,29.98,10.0,Calm,Calm,-,N/A,,Overcast,0,2013-04-15 07:53:00
1:53 AM,42.1,39.9,92,29.98,10.0,Calm,Calm,-,N/A,,Overcast,0,2013-04-15 08:53:00
2:01 AM,41.0,39.2,93,29.96,10.0,SE,3.5,-,N/A,,Overcast,130,2013-04-15 09:01:00
2:53 AM,41.0,39.9,96,29.98,10.0,Calm,Calm,-,N/A,,Overcast,0,2013-04-15 09:53:00
3:53 AM,41.0,39.9,96,29.98,10.0,SE,3.5,-,N/A,,Overcast,130,2013-04-15 10:53:00
4:53 AM,39.9,39.0,97,29.99,10.0,Calm,Calm,-,N/A,,Overcast,0,2013-04-15 11:53:00
5:53 AM,39.0,39.0,100,29.99,9.0,Calm,Calm,-,N/A,,Scattered Clouds,0,2013-04-15 12:53:00
6:53 AM,39.0,39.0,100,30.01,9.0,Calm,Calm,-,N/A,,Overcast,0,2013-04-15 13:53:00
7:53 AM,41.0,39.0,93,30.03,10.0,Calm,Calm,-,N/A,,Overcast,0,2013-04-15 14:53:00
8:53 AM,43.0,39.9,89,30.04,10.0,NW,3.5,-,N/A,,Mostly Cloudy,320,2013-04-15 15:53:00
9:53 AM,44.1,39.0,82,30.04,10.0,Calm,Calm,-,N/A,,Overcast,0,2013-04-15 16:53:00
10:53 AM,46.0,39.9,79,30.06,10.0,NW,4.6,-,N/A,,Overcast,310,2013-04-15 17:53:00
11:53 AM,46.9,39.9,77,30.07,10.0,Calm,Calm,-,0.00,,Overcast,0,2013-04-15 18:53:00
12:53 PM,48.9,39.0,69,30.07,10.0,NNW,4.6,-,N/A,,Overcast,340,2013-04-15 19:53:00
1:53 PM,51.1,36.0,56,30.07,10.0,NW,8.1,-,N/A,,Overcast,310,2013-04-15 20:53:00
2:53 PM,53.6,37.4,54,30.05,10.0,NW,9.2,-,N/A,,Clear,320,2013-04-15 21:53:00
3:53 PM,54.0,37.0,53,30.07,10.0,NW,8.1,-,N/A,,Clear,310,2013-04-15 22:53:00
4:53 PM,55.0,36.0,49,30.08,10.0,NNW,11.5,-,N/A,,Clear,330,2013-04-15 23:53:00
5:53 PM,54.0,34.0,47,30.10,10.0,NW,8.1,-,N/A,,Clear,310,2013-04-16 00:53:00
6:53 PM,53.1,39.9,61,30.11,10.0,East,5.8,-,N/A,,Partly Cloudy,80,2013-04-16 01:53:00
7:53 PM,45.0,41.0,86,30.15,10.0,Variable,5.8,-,0.03,Rain,Light Rain,0,2013-04-16 02:53:00
8:53 PM,44.1,39.9,85,30.17,10.0,SSE,3.5,-,0.00,,Clear,150,2013-04-16 03:53:00
9:53 PM,43.0,42.1,97,30.19,10.0,Calm,Calm,-,N/A,,Scattered Clouds,0,2013-04-16 04:53:00
10:53 PM,42.1,39.9,92,30.19,10.0,East,3.5,-,N/A,,Clear,100,2013-04-16 05:53:00
11:53 PM,41.0,39.0,93,30.21,10.0,Calm,Calm,-,N/A,,Partly Cloudy,0,2013-04-16 06:53:00